![]() |
EMODnet Physics ERDDAP
Easier access to scientific data |
log in|
Brought to you by EMODnet Physics |
| Dataset Title: | NDBC - Collection of dew point temperature (DEWT) TimeSeries - IN SITU MultiPointTimeSeriesObservation
|
| Institution: | NDBC (Dataset ID: TS_DEWT_NDBC) |
| Information: | Summary
| License
| FGDC
| ISO 19115
| Metadata
| Background
| Subset
| Data Access Form
| Make a graph
|
| Name | Last modified | Size | Description | |
|---|---|---|---|---|
| Parent Directory | - | - | ||
| FBIS1_TS_DEWT_012000.nc | 26-Dec-2024 11:44 | 599242 | ||
| FBIS1_TS_DEWT_012002.nc | 26-Dec-2024 11:47 | 438026 | ||
| FBIS1_TS_DEWT_012003.nc | 26-Dec-2024 11:48 | 590700 | ||
| FBIS1_TS_DEWT_012004.nc | 26-Dec-2024 11:50 | 420341 | ||
| FBIS1_TS_DEWT_012005.nc | 26-Dec-2024 11:52 | 608961 | ||
| FBIS1_TS_DEWT_012006.nc | 26-Dec-2024 11:53 | 599509 | ||
| FBIS1_TS_DEWT_012007.nc | 26-Dec-2024 11:55 | 608912 | ||
| FBIS1_TS_DEWT_012008.nc | 26-Dec-2024 11:56 | 608670 | ||
| FBIS1_TS_DEWT_012009.nc | 26-Dec-2024 11:58 | 605851 | ||
| FBIS1_TS_DEWT_012010.nc | 26-Dec-2024 11:59 | 903015 | ||
| FBIS1_TS_DEWT_012011.nc | 26-Dec-2024 12:01 | 600560 | ||
| FBIS1_TS_DEWT_012012.nc | 26-Dec-2024 12:03 | 902705 | ||
| FBIS1_TS_DEWT_012013.nc | 26-Dec-2024 12:04 | 597750 | ||
| FBIS1_TS_DEWT_012016.nc | 26-Dec-2024 12:09 | 608200 | ||
| FBIS1_TS_DEWT_012017.nc | 26-Dec-2024 12:10 | 602724 | ||
| FBIS1_TS_DEWT_012018.nc | 26-Dec-2024 12:12 | 608747 | ||
| FBIS1_TS_DEWT_012019.nc | 20-Jan-2026 06:17 | 599469 | ||
| FBIS1_TS_DEWT_012020.nc | 20-Jan-2026 06:22 | 608689 | ||
| FBIS1_TS_DEWT_012023.nc | 20-Jan-2026 06:34 | 608855 | ||
| FBIS1_TS_DEWT_022000.nc | 26-Dec-2024 11:44 | 428024 | ||
| FBIS1_TS_DEWT_022002.nc | 26-Dec-2024 11:47 | 608755 | ||
| FBIS1_TS_DEWT_022003.nc | 26-Dec-2024 11:48 | 608852 | ||
| FBIS1_TS_DEWT_022004.nc | 26-Dec-2024 11:50 | 608634 | ||
| FBIS1_TS_DEWT_022005.nc | 26-Dec-2024 11:52 | 600885 | ||
| FBIS1_TS_DEWT_022006.nc | 26-Dec-2024 11:53 | 606741 | ||
| FBIS1_TS_DEWT_022007.nc | 26-Dec-2024 11:55 | 602592 | ||
| FBIS1_TS_DEWT_022008.nc | 26-Dec-2024 11:56 | 902663 | ||
| FBIS1_TS_DEWT_022009.nc | 26-Dec-2024 11:58 | 902893 | ||
| FBIS1_TS_DEWT_022010.nc | 26-Dec-2024 12:00 | 902976 | ||
| FBIS1_TS_DEWT_022011.nc | 26-Dec-2024 12:01 | 609027 | ||
| FBIS1_TS_DEWT_022012.nc | 26-Dec-2024 12:03 | 902629 | ||
| FBIS1_TS_DEWT_022013.nc | 26-Dec-2024 12:04 | 902987 | ||
| FBIS1_TS_DEWT_022016.nc | 26-Dec-2024 12:09 | 903015 | ||
| FBIS1_TS_DEWT_022017.nc | 26-Dec-2024 12:10 | 902837 | ||
| FBIS1_TS_DEWT_022018.nc | 26-Dec-2024 12:12 | 606378 | ||
| FBIS1_TS_DEWT_022019.nc | 20-Jan-2026 06:17 | 588798 | ||
| FBIS1_TS_DEWT_022020.nc | 20-Jan-2026 06:22 | 600397 | ||
| FBIS1_TS_DEWT_022022.nc | 20-Jan-2026 06:30 | 427312 | ||
| FBIS1_TS_DEWT_022023.nc | 20-Jan-2026 06:34 | 608761 | ||
| FBIS1_TS_DEWT_031989.nc | 26-Dec-2024 11:27 | 607068 | ||
| FBIS1_TS_DEWT_032000.nc | 26-Dec-2024 11:44 | 608869 | ||
| FBIS1_TS_DEWT_032002.nc | 26-Dec-2024 11:47 | 608761 | ||
| FBIS1_TS_DEWT_032003.nc | 26-Dec-2024 11:49 | 608652 | ||
| FBIS1_TS_DEWT_032004.nc | 26-Dec-2024 11:50 | 607723 | ||
| FBIS1_TS_DEWT_032005.nc | 26-Dec-2024 11:52 | 603716 | ||
| FBIS1_TS_DEWT_032006.nc | 26-Dec-2024 11:53 | 597816 | ||
| FBIS1_TS_DEWT_032007.nc | 26-Dec-2024 11:55 | 605670 | ||
| FBIS1_TS_DEWT_032008.nc | 26-Dec-2024 11:57 | 594810 | ||
| FBIS1_TS_DEWT_032009.nc | 26-Dec-2024 11:58 | 604482 | ||
| FBIS1_TS_DEWT_032010.nc | 26-Dec-2024 12:00 | 902809 | ||
| FBIS1_TS_DEWT_032011.nc | 26-Dec-2024 12:01 | 902213 | ||
| FBIS1_TS_DEWT_032012.nc | 26-Dec-2024 12:03 | 902929 | ||
| FBIS1_TS_DEWT_032013.nc | 26-Dec-2024 12:04 | 902623 | ||
| FBIS1_TS_DEWT_032015.nc | 26-Dec-2024 12:07 | 609095 | ||
| FBIS1_TS_DEWT_032016.nc | 26-Dec-2024 12:09 | 590864 | ||
| FBIS1_TS_DEWT_032017.nc | 26-Dec-2024 12:10 | 437817 | ||
| FBIS1_TS_DEWT_032018.nc | 26-Dec-2024 12:12 | 902619 | ||
| FBIS1_TS_DEWT_032019.nc | 20-Jan-2026 06:18 | 597172 | ||
| FBIS1_TS_DEWT_032020.nc | 20-Jan-2026 06:23 | 902996 | ||
| FBIS1_TS_DEWT_032022.nc | 20-Jan-2026 06:30 | 903013 | ||
| FBIS1_TS_DEWT_032023.nc | 20-Jan-2026 06:35 | 431376 | ||
| FBIS1_TS_DEWT_042000.nc | 26-Dec-2024 11:44 | 608972 | ||
| FBIS1_TS_DEWT_042002.nc | 26-Dec-2024 11:47 | 903026 | ||
| FBIS1_TS_DEWT_042003.nc | 26-Dec-2024 11:49 | 902743 | ||
| FBIS1_TS_DEWT_042004.nc | 26-Dec-2024 11:50 | 433210 | ||
| FBIS1_TS_DEWT_042005.nc | 26-Dec-2024 11:52 | 588700 | ||
| FBIS1_TS_DEWT_042006.nc | 26-Dec-2024 11:54 | 608699 | ||
| FBIS1_TS_DEWT_042007.nc | 26-Dec-2024 11:55 | 608754 | ||
| FBIS1_TS_DEWT_042008.nc | 26-Dec-2024 11:57 | 608733 | ||
| FBIS1_TS_DEWT_042009.nc | 26-Dec-2024 11:58 | 597780 | ||
| FBIS1_TS_DEWT_042010.nc | 26-Dec-2024 12:00 | 608149 | ||
| FBIS1_TS_DEWT_042011.nc | 26-Dec-2024 12:02 | 608294 | ||
| FBIS1_TS_DEWT_042012.nc | 26-Dec-2024 12:03 | 607995 | ||
| FBIS1_TS_DEWT_042013.nc | 26-Dec-2024 12:05 | 434980 | ||
| FBIS1_TS_DEWT_042015.nc | 26-Dec-2024 12:08 | 597373 | ||
| FBIS1_TS_DEWT_042016.nc | 26-Dec-2024 12:09 | 902899 | ||
| FBIS1_TS_DEWT_042017.nc | 26-Dec-2024 12:11 | 902974 | ||
| FBIS1_TS_DEWT_042018.nc | 26-Dec-2024 12:12 | 608631 | ||
| FBIS1_TS_DEWT_042019.nc | 20-Jan-2026 06:18 | 602752 | ||
| FBIS1_TS_DEWT_042020.nc | 20-Jan-2026 06:23 | 606577 | ||
| FBIS1_TS_DEWT_042022.nc | 20-Jan-2026 06:31 | 902968 | ||
| FBIS1_TS_DEWT_042023.nc | 20-Jan-2026 06:35 | 598184 | ||
| FBIS1_TS_DEWT_052002.nc | 26-Dec-2024 11:47 | 608719 | ||
| FBIS1_TS_DEWT_052003.nc | 26-Dec-2024 11:49 | 439008 | ||
| FBIS1_TS_DEWT_052004.nc | 26-Dec-2024 11:51 | 603954 | ||
| FBIS1_TS_DEWT_052005.nc | 26-Dec-2024 11:52 | 608434 | ||
| FBIS1_TS_DEWT_052006.nc | 26-Dec-2024 11:54 | 607333 | ||
| FBIS1_TS_DEWT_052007.nc | 26-Dec-2024 11:55 | 600671 | ||
| FBIS1_TS_DEWT_052008.nc | 26-Dec-2024 11:57 | 606741 | ||
| FBIS1_TS_DEWT_052009.nc | 26-Dec-2024 11:58 | 605979 | ||
| FBIS1_TS_DEWT_052010.nc | 26-Dec-2024 12:00 | 608660 | ||
| FBIS1_TS_DEWT_052011.nc | 26-Dec-2024 12:02 | 593024 | ||
| FBIS1_TS_DEWT_052012.nc | 26-Dec-2024 12:03 | 603905 | ||
| FBIS1_TS_DEWT_052013.nc | 26-Dec-2024 12:05 | 432950 | ||
| FBIS1_TS_DEWT_052015.nc | 26-Dec-2024 12:08 | 588702 | ||
| FBIS1_TS_DEWT_052016.nc | 26-Dec-2024 12:09 | 609062 | ||
| FBIS1_TS_DEWT_052017.nc | 26-Dec-2024 12:11 | 902769 | ||
| FBIS1_TS_DEWT_052018.nc | 26-Dec-2024 12:12 | 602026 | ||
| FBIS1_TS_DEWT_052019.nc | 20-Jan-2026 06:18 | 902185 | ||
| FBIS1_TS_DEWT_052020.nc | 20-Jan-2026 06:23 | 903032 | ||
| FBIS1_TS_DEWT_052022.nc | 20-Jan-2026 06:31 | 609023 | ||
| FBIS1_TS_DEWT_052023.nc | 20-Jan-2026 06:35 | 902493 | ||
| FBIS1_TS_DEWT_062002.nc | 26-Dec-2024 11:47 | 608202 | ||
| FBIS1_TS_DEWT_062003.nc | 26-Dec-2024 11:49 | 593223 | ||
| FBIS1_TS_DEWT_062004.nc | 26-Dec-2024 11:51 | 423107 | ||
| FBIS1_TS_DEWT_062005.nc | 26-Dec-2024 11:52 | 420248 | ||
| FBIS1_TS_DEWT_062006.nc | 26-Dec-2024 11:54 | 419967 | ||
| FBIS1_TS_DEWT_062007.nc | 26-Dec-2024 11:55 | 419360 | ||
| FBIS1_TS_DEWT_062008.nc | 26-Dec-2024 11:57 | 422895 | ||
| FBIS1_TS_DEWT_062009.nc | 26-Dec-2024 11:59 | 429589 | ||
| FBIS1_TS_DEWT_062010.nc | 26-Dec-2024 12:00 | 429831 | ||
| FBIS1_TS_DEWT_062011.nc | 26-Dec-2024 12:02 | 429778 | ||
| FBIS1_TS_DEWT_062012.nc | 26-Dec-2024 12:03 | 429347 | ||
| FBIS1_TS_DEWT_062013.nc | 26-Dec-2024 12:05 | 429591 | ||
| FBIS1_TS_DEWT_062015.nc | 26-Dec-2024 12:08 | 429476 | ||
| FBIS1_TS_DEWT_062016.nc | 26-Dec-2024 12:09 | 429687 | ||
| FBIS1_TS_DEWT_062017.nc | 26-Dec-2024 12:11 | 429723 | ||
| FBIS1_TS_DEWT_062018.nc | 26-Dec-2024 12:12 | 429644 | ||
| FBIS1_TS_DEWT_062019.nc | 20-Jan-2026 06:19 | 450256 | ||
| FBIS1_TS_DEWT_062020.nc | 20-Jan-2026 06:24 | 3648839 | ||
| FBIS1_TS_DEWT_062022.nc | 20-Jan-2026 06:32 | 442359 | ||
| FBIS1_TS_DEWT_062023.nc | 20-Jan-2026 06:36 | 446268 | ||
| FBIS1_TS_DEWT_072002.nc | 26-Dec-2024 11:48 | 431524 | ||
| FBIS1_TS_DEWT_072003.nc | 26-Dec-2024 11:49 | 427413 | ||
| FBIS1_TS_DEWT_072004.nc | 26-Dec-2024 11:51 | 425628 | ||
| FBIS1_TS_DEWT_072005.nc | 26-Dec-2024 11:52 | 427624 | ||
| FBIS1_TS_DEWT_072006.nc | 26-Dec-2024 11:54 | 428697 | ||
| FBIS1_TS_DEWT_072007.nc | 26-Dec-2024 11:56 | 429944 | ||
| FBIS1_TS_DEWT_072008.nc | 26-Dec-2024 11:57 | 429106 | ||
| FBIS1_TS_DEWT_072009.nc | 26-Dec-2024 11:59 | 428705 | ||
| FBIS1_TS_DEWT_072010.nc | 26-Dec-2024 12:00 | 428522 | ||
| FBIS1_TS_DEWT_072011.nc | 26-Dec-2024 12:02 | 428765 | ||
| FBIS1_TS_DEWT_072012.nc | 26-Dec-2024 12:03 | 429063 | ||
| FBIS1_TS_DEWT_072013.nc | 26-Dec-2024 12:05 | 421316 | ||
| FBIS1_TS_DEWT_072015.nc | 26-Dec-2024 12:08 | 428755 | ||
| FBIS1_TS_DEWT_072016.nc | 26-Dec-2024 12:09 | 428806 | ||
| FBIS1_TS_DEWT_072017.nc | 26-Dec-2024 12:11 | 420036 | ||
| FBIS1_TS_DEWT_072018.nc | 26-Dec-2024 12:13 | 2680059 | ||
| FBIS1_TS_DEWT_072019.nc | 20-Jan-2026 06:19 | 451325 | ||
| FBIS1_TS_DEWT_072022.nc | 20-Jan-2026 06:32 | 450721 | ||
| FBIS1_TS_DEWT_072023.nc | 20-Jan-2026 06:36 | 429759 | ||
| FBIS1_TS_DEWT_082002.nc | 26-Dec-2024 11:48 | 429820 | ||
| FBIS1_TS_DEWT_082003.nc | 26-Dec-2024 11:49 | 429811 | ||
| FBIS1_TS_DEWT_082004.nc | 26-Dec-2024 11:51 | 429598 | ||
| FBIS1_TS_DEWT_082005.nc | 26-Dec-2024 11:53 | 428475 | ||
| FBIS1_TS_DEWT_082006.nc | 26-Dec-2024 11:54 | 429837 | ||
| FBIS1_TS_DEWT_082007.nc | 26-Dec-2024 11:56 | 428819 | ||
| FBIS1_TS_DEWT_082008.nc | 26-Dec-2024 11:57 | 429426 | ||
| FBIS1_TS_DEWT_082009.nc | 26-Dec-2024 11:59 | 429745 | ||
| FBIS1_TS_DEWT_082010.nc | 26-Dec-2024 12:00 | 429501 | ||
| FBIS1_TS_DEWT_082011.nc | 26-Dec-2024 12:02 | 429685 | ||
| FBIS1_TS_DEWT_082012.nc | 26-Dec-2024 12:04 | 426667 | ||
| FBIS1_TS_DEWT_082013.nc | 26-Dec-2024 12:05 | 429814 | ||
| FBIS1_TS_DEWT_082015.nc | 26-Dec-2024 12:08 | 429836 | ||
| FBIS1_TS_DEWT_082016.nc | 26-Dec-2024 12:10 | 3111599 | ||
| FBIS1_TS_DEWT_082017.nc | 26-Dec-2024 12:11 | 449407 | ||
| FBIS1_TS_DEWT_082019.nc | 20-Jan-2026 06:19 | 450389 | ||
| FBIS1_TS_DEWT_082022.nc | 20-Jan-2026 06:32 | 429472 | ||
| FBIS1_TS_DEWT_082023.nc | 20-Jan-2026 06:36 | 429489 | ||
| FBIS1_TS_DEWT_091999.nc | 26-Dec-2024 11:43 | 429242 | ||
| FBIS1_TS_DEWT_092001.nc | 26-Dec-2024 11:46 | 429464 | ||
| FBIS1_TS_DEWT_092002.nc | 26-Dec-2024 11:48 | 429356 | ||
| FBIS1_TS_DEWT_092003.nc | 26-Dec-2024 11:50 | 429405 | ||
| FBIS1_TS_DEWT_092004.nc | 26-Dec-2024 11:51 | 429153 | ||
| FBIS1_TS_DEWT_092005.nc | 26-Dec-2024 11:53 | 429247 | ||
| FBIS1_TS_DEWT_092006.nc | 26-Dec-2024 11:54 | 429476 | ||
| FBIS1_TS_DEWT_092007.nc | 26-Dec-2024 11:56 | 428258 | ||
| FBIS1_TS_DEWT_092008.nc | 26-Dec-2024 11:57 | 429280 | ||
| FBIS1_TS_DEWT_092009.nc | 26-Dec-2024 11:59 | 429324 | ||
| FBIS1_TS_DEWT_092010.nc | 26-Dec-2024 12:00 | 429444 | ||
| FBIS1_TS_DEWT_092011.nc | 26-Dec-2024 12:02 | 429487 | ||
| FBIS1_TS_DEWT_092012.nc | 26-Dec-2024 12:04 | 3943015 | ||
| FBIS1_TS_DEWT_092013.nc | 26-Dec-2024 12:05 | 450601 | ||
| FBIS1_TS_DEWT_092015.nc | 26-Dec-2024 12:08 | 452044 | ||
| FBIS1_TS_DEWT_092016.nc | 26-Dec-2024 12:10 | 429812 | ||
| FBIS1_TS_DEWT_092017.nc | 26-Dec-2024 12:11 | 429821 | ||
| FBIS1_TS_DEWT_092018.nc | 20-Jan-2026 06:16 | 428753 | ||
| FBIS1_TS_DEWT_092019.nc | 20-Jan-2026 06:20 | 429720 | ||
| FBIS1_TS_DEWT_092022.nc | 20-Jan-2026 06:33 | 420017 | ||
| FBIS1_TS_DEWT_092023.nc | 20-Jan-2026 06:37 | 429682 | ||
| FBIS1_TS_DEWT_101999.nc | 26-Dec-2024 11:43 | 428963 | ||
| FBIS1_TS_DEWT_102001.nc | 26-Dec-2024 11:46 | 429814 | ||
| FBIS1_TS_DEWT_102002.nc | 26-Dec-2024 11:48 | 429819 | ||
| FBIS1_TS_DEWT_102003.nc | 26-Dec-2024 11:50 | 429791 | ||
| FBIS1_TS_DEWT_102004.nc | 26-Dec-2024 11:51 | 429656 | ||
| FBIS1_TS_DEWT_102005.nc | 26-Dec-2024 11:53 | 429837 | ||
| FBIS1_TS_DEWT_102006.nc | 26-Dec-2024 11:54 | 429829 | ||
| FBIS1_TS_DEWT_102007.nc | 26-Dec-2024 11:56 | 429650 | ||
| FBIS1_TS_DEWT_102008.nc | 26-Dec-2024 11:57 | 428904 | ||
| FBIS1_TS_DEWT_102009.nc | 26-Dec-2024 11:59 | 4430855 | ||
| FBIS1_TS_DEWT_102010.nc | 26-Dec-2024 12:01 | 448042 | ||
| FBIS1_TS_DEWT_102011.nc | 26-Dec-2024 12:02 | 450994 | ||
| FBIS1_TS_DEWT_102012.nc | 26-Dec-2024 12:04 | 427836 | ||
| FBIS1_TS_DEWT_102015.nc | 26-Dec-2024 12:08 | 435186 | ||
| FBIS1_TS_DEWT_102016.nc | 26-Dec-2024 12:10 | 429438 | ||
| FBIS1_TS_DEWT_102017.nc | 26-Dec-2024 12:11 | 429397 | ||
| FBIS1_TS_DEWT_102018.nc | 20-Jan-2026 06:16 | 429330 | ||
| FBIS1_TS_DEWT_102019.nc | 20-Jan-2026 06:20 | 424387 | ||
| FBIS1_TS_DEWT_102022.nc | 20-Jan-2026 06:33 | 429119 | ||
| FBIS1_TS_DEWT_102023.nc | 20-Jan-2026 06:37 | 429156 | ||
| FBIS1_TS_DEWT_111999.nc | 26-Dec-2024 11:43 | 429286 | ||
| FBIS1_TS_DEWT_112001.nc | 26-Dec-2024 11:47 | 429447 | ||
| FBIS1_TS_DEWT_112002.nc | 26-Dec-2024 11:48 | 429492 | ||
| FBIS1_TS_DEWT_112003.nc | 26-Dec-2024 11:50 | 429138 | ||
| FBIS1_TS_DEWT_112004.nc | 26-Dec-2024 11:51 | 429494 | ||
| FBIS1_TS_DEWT_112005.nc | 26-Dec-2024 11:53 | 429465 | ||
| FBIS1_TS_DEWT_112006.nc | 26-Dec-2024 11:54 | 421534 | ||
| FBIS1_TS_DEWT_112007.nc | 26-Dec-2024 11:56 | 4115948 | ||
| FBIS1_TS_DEWT_112008.nc | 26-Dec-2024 11:58 | 442371 | ||
| FBIS1_TS_DEWT_112009.nc | 26-Dec-2024 11:59 | 451753 | ||
| FBIS1_TS_DEWT_112010.nc | 26-Dec-2024 12:01 | 429833 | ||
| FBIS1_TS_DEWT_112011.nc | 26-Dec-2024 12:02 | 450314 | ||
| FBIS1_TS_DEWT_112012.nc | 26-Dec-2024 12:04 | 423732 | ||
| FBIS1_TS_DEWT_112015.nc | 26-Dec-2024 12:08 | 429816 | ||
| FBIS1_TS_DEWT_112016.nc | 26-Dec-2024 12:10 | 429599 | ||
| FBIS1_TS_DEWT_112017.nc | 26-Dec-2024 12:11 | 421783 | ||
| FBIS1_TS_DEWT_112018.nc | 20-Jan-2026 06:16 | 429762 | ||
| FBIS1_TS_DEWT_112019.nc | 20-Jan-2026 06:21 | 429805 | ||
| FBIS1_TS_DEWT_112022.nc | 20-Jan-2026 06:33 | 429795 | ||
| FBIS1_TS_DEWT_112023.nc | 20-Jan-2026 06:37 | 429811 | ||
| FBIS1_TS_DEWT_121999.nc | 26-Dec-2024 11:44 | 429733 | ||
| FBIS1_TS_DEWT_122001.nc | 26-Dec-2024 11:47 | 425948 | ||
| FBIS1_TS_DEWT_122002.nc | 26-Dec-2024 11:48 | 429660 | ||
| FBIS1_TS_DEWT_122003.nc | 26-Dec-2024 11:50 | 429821 | ||
| FBIS1_TS_DEWT_122004.nc | 26-Dec-2024 11:52 | 4635367 | ||
| FBIS1_TS_DEWT_122005.nc | 26-Dec-2024 11:53 | 1165621 | ||
| FBIS1_TS_DEWT_122006.nc | 26-Dec-2024 11:55 | 429488 | ||
| FBIS1_TS_DEWT_122007.nc | 26-Dec-2024 11:56 | 449278 | ||
| FBIS1_TS_DEWT_122008.nc | 26-Dec-2024 11:58 | 429836 | ||
| FBIS1_TS_DEWT_122009.nc | 26-Dec-2024 11:59 | 433497 | ||
| FBIS1_TS_DEWT_122010.nc | 26-Dec-2024 12:01 | 419952 | ||
| FBIS1_TS_DEWT_122011.nc | 26-Dec-2024 12:03 | 429810 | ||
| FBIS1_TS_DEWT_122012.nc | 26-Dec-2024 12:04 | 429437 | ||
| FBIS1_TS_DEWT_122015.nc | 26-Dec-2024 12:09 | 429836 | ||
| FBIS1_TS_DEWT_122016.nc | 26-Dec-2024 12:10 | 429789 | ||
| FBIS1_TS_DEWT_122017.nc | 26-Dec-2024 12:12 | 429821 | ||
| FBIS1_TS_DEWT_122018.nc | 20-Jan-2026 06:17 | 429300 | ||
| FBIS1_TS_DEWT_122019.nc | 20-Jan-2026 06:21 | 429349 | ||
| FBIS1_TS_DEWT_122022.nc | 20-Jan-2026 06:34 | 429779 | ||
| FBIS1_TS_DEWT_122023.nc | 20-Jan-2026 06:37 | 424668 | ||